TimeEST,TemperatureF,Dew PointF,Humidity,Sea Level PressureIn,VisibilityMPH,Wind Direction,Wind SpeedMPH,Gust SpeedMPH,PrecipitationIn,Events,Conditions,WindDirDegrees,DateUTC
12:17 AM,27.9,25.7,92,29.98,2.5,East,5.8,-,N/A,Snow,Light Snow,80,2013-12-04 05:17:00
12:37 AM,27.9,25.9,92,29.98,3.0,East,5.8,-,N/A,Snow,Light Snow,80,2013-12-04 05:37:00
12:57 AM,27.5,25.3,92,29.98,5.0,East,6.9,-,N/A,Snow,Light Snow,80,2013-12-04 05:57:00
1:17 AM,27.5,25.5,92,29.98,4.0,ENE,6.9,-,N/A,Snow,Light Snow,70,2013-12-04 06:17:00
1:37 AM,27.5,26.1,94,29.98,1.5,NE,6.9,-,N/A,Snow,Light Snow,50,2013-12-04 06:37:00
1:57 AM,27.0,25.3,94,29.98,1.8,NE,9.2,-,N/A,Snow,Light Snow,50,2013-12-04 06:57:00
2:17 AM,26.6,25.2,94,29.98,2.0,NE,5.8,-,N/A,Snow,Light Snow,50,2013-12-04 07:17:00
2:37 AM,26.4,24.8,94,29.98,3.0,NE,8.1,-,N/A,Snow,Light Snow,50,2013-12-04 07:37:00
2:57 AM,26.1,24.3,93,29.98,1.8,NE,9.2,-,N/A,Snow,Light Snow,50,2013-12-04 07:57:00
3:17 AM,25.7,23.9,93,29.98,2.0,NE,8.1,-,N/A,Snow,Light Snow,50,2013-12-04 08:17:00
3:36 AM,25.7,23.9,93,29.97,2.5,NE,8.1,-,N/A,Snow,Light Snow,50,2013-12-04 08:36:00
3:57 AM,25.7,23.9,93,29.96,3.0,NE,9.2,-,N/A,Snow,Light Snow,50,2013-12-04 08:57:00
4:17 AM,25.7,23.7,92,29.97,5.0,ENE,6.9,-,N/A,Snow,Light Snow,60,2013-12-04 09:17:00
4:37 AM,25.7,23.5,92,29.97,7.0,NE,8.1,-,N/A,Snow,Light Snow,50,2013-12-04 09:37:00
4:57 AM,25.7,23.4,91,29.97,5.0,NE,6.9,-,N/A,Snow,Light Snow,50,2013-12-04 09:57:00
5:17 AM,25.7,23.4,91,29.98,5.0,NE,8.1,-,N/A,Snow,Light Snow,40,2013-12-04 10:17:00
5:37 AM,25.7,23.5,92,29.99,3.0,NE,8.1,-,N/A,Snow,Light Snow,50,2013-12-04 10:37:00
5:57 AM,25.7,23.4,91,29.98,2.5,NE,9.2,-,N/A,Snow,Light Snow,50,2013-12-04 10:57:00
6:17 AM,25.5,23.4,92,29.99,2.5,NE,8.1,-,N/A,Snow,Light Snow,40,2013-12-04 11:17:00
6:37 AM,25.5,23.0,90,29.99,5.0,NE,9.2,-,N/A,Snow,Light Snow,50,2013-12-04 11:37:00
6:57 AM,25.5,23.0,90,29.97,4.0,ENE,9.2,16.1,N/A,Snow,Light Snow,60,2013-12-04 11:57:00
7:17 AM,25.5,23.0,90,29.97,4.0,ENE,6.9,-,N/A,Snow,Light Snow,60,2013-12-04 12:17:00
7:37 AM,25.7,23.4,91,29.97,10.0,ENE,10.4,16.1,N/A,,Overcast,60,2013-12-04 12:37:00
7:57 AM,26.2,23.7,90,29.98,10.0,ENE,8.1,-,N/A,,Overcast,60,2013-12-04 12:57:00
8:17 AM,26.4,23.9,90,29.98,10.0,NE,10.4,-,N/A,,Overcast,50,2013-12-04 13:17:00
8:37 AM,26.6,24.4,92,29.98,10.0,ENE,5.8,16.1,N/A,,Overcast,60,2013-12-04 13:37:00
8:57 AM,27.1,24.6,90,29.96,10.0,ENE,10.4,16.1,N/A,,Overcast,60,2013-12-04 13:57:00
9:17 AM,27.3,24.8,90,29.96,10.0,ENE,10.4,21.9,N/A,,Overcast,70,2013-12-04 14:17:00
9:37 AM,27.5,25.2,91,29.97,10.0,ENE,10.4,20.7,N/A,,Overcast,60,2013-12-04 14:37:00
9:57 AM,27.7,25.3,91,29.96,10.0,ENE,9.2,16.1,N/A,,Overcast,60,2013-12-04 14:57:00
10:17 AM,28.0,25.3,90,29.97,10.0,East,12.7,18.4,N/A,,Overcast,80,2013-12-04 15:17:00
10:37 AM,28.2,25.5,90,29.96,10.0,ENE,6.9,18.4,N/A,,Overcast,70,2013-12-04 15:37:00
10:57 AM,28.4,25.7,90,29.95,4.0,ENE,10.4,19.6,N/A,Snow,Light Snow,60,2013-12-04 15:57:00
11:17 AM,28.8,26.2,90,29.95,7.0,East,6.9,-,N/A,Snow,Light Snow,80,2013-12-04 16:17:00
11:37 AM,28.9,26.4,90,29.94,5.0,ENE,11.5,17.3,N/A,Snow,Light Snow,70,2013-12-04 16:37:00
11:56 AM,29.1,26.6,90,29.94,4.0,ENE,6.9,-,N/A,Snow,Light Snow,70,2013-12-04 16:56:00
12:17 PM,29.3,27.1,92,29.93,4.0,East,8.1,19.6,N/A,Snow,Light Snow,80,2013-12-04 17:17:00
12:37 PM,29.7,27.5,92,29.93,7.0,ENE,8.1,16.1,N/A,Snow,Light Snow,70,2013-12-04 17:37:00
12:57 PM,29.8,27.9,92,29.90,7.0,East,10.4,19.6,N/A,Snow,Light Snow,80,2013-12-04 17:57:00
1:17 PM,30.2,28.4,93,29.90,5.0,East,9.2,16.1,N/A,,Overcast,80,2013-12-04 18:17:00
1:37 PM,30.2,28.4,93,29.87,7.0,ENE,8.1,17.3,N/A,,Overcast,70,2013-12-04 18:37:00
1:57 PM,30.2,28.4,93,29.87,10.0,East,10.4,16.1,N/A,,Overcast,90,2013-12-04 18:57:00
2:17 PM,30.2,28.4,93,29.87,10.0,ENE,8.1,18.4,N/A,,Overcast,70,2013-12-04 19:17:00
2:37 PM,30.2,28.9,95,29.86,5.0,East,8.1,16.1,N/A,,Overcast,80,2013-12-04 19:37:00
2:57 PM,30.6,29.3,95,29.86,5.0,East,9.2,19.6,N/A,,Overcast,90,2013-12-04 19:57:00
3:17 PM,30.7,29.5,95,29.86,7.0,East,8.1,-,N/A,,Overcast,80,2013-12-04 20:17:00
3:37 PM,30.6,29.3,95,29.83,10.0,East,9.2,20.7,N/A,,Overcast,90,2013-12-04 20:37:00
3:57 PM,30.9,29.8,96,29.86,10.0,East,5.8,18.4,N/A,,Overcast,80,2013-12-04 20:57:00
4:17 PM,30.9,29.8,96,29.86,10.0,East,9.2,-,N/A,,Overcast,80,2013-12-04 21:17:00
4:37 PM,30.9,30.0,96,29.84,5.0,ENE,8.1,17.3,N/A,,Overcast,70,2013-12-04 21:37:00
4:57 PM,30.9,30.2,97,29.82,5.0,East,8.1,18.4,N/A,,Overcast,90,2013-12-04 21:57:00
5:17 PM,31.1,30.7,99,29.81,7.0,East,10.4,19.6,N/A,,Overcast,80,2013-12-04 22:17:00
5:37 PM,31.5,30.9,98,29.80,5.0,East,12.7,23.0,N/A,,Overcast,90,2013-12-04 22:37:00
5:57 PM,31.5,30.9,98,29.78,3.0,East,10.4,23.0,N/A,,Overcast,90,2013-12-04 22:57:00
6:17 PM,31.8,31.5,99,29.77,2.0,East,15.0,24.2,N/A,,Overcast,90,2013-12-04 23:17:00
6:37 PM,31.8,31.5,99,29.76,1.8,East,12.7,25.3,N/A,,Overcast,100,2013-12-04 23:37:00
6:57 PM,32.0,32.0,100,29.75,1.5,East,11.5,26.5,N/A,,Overcast,90,2013-12-04 23:57:00
7:17 PM,32.0,32.0,100,29.73,1.2,East,11.5,20.7,N/A,,Overcast,90,2013-12-05 00:17:00
7:37 PM,32.4,32.2,99,29.71,1.2,East,11.5,23.0,N/A,,Overcast,100,2013-12-05 00:37:00
7:57 PM,32.5,32.4,99,29.69,2.0,East,16.1,23.0,N/A,,Overcast,100,2013-12-05 00:57:00
8:17 PM,32.9,32.5,99,29.67,2.5,East,10.4,18.4,N/A,,Overcast,90,2013-12-05 01:17:00
8:37 PM,32.9,32.9,100,29.65,2.0,East,12.7,21.9,N/A,,Overcast,100,2013-12-05 01:37:00
8:57 PM,33.3,33.1,99,29.64,4.0,ESE,10.4,18.4,N/A,,Overcast,110,2013-12-05 01:57:00
9:17 PM,33.8,33.4,99,29.62,4.0,East,10.4,18.4,N/A,Snow,Light Snow,100,2013-12-05 02:17:00
9:37 PM,34.0,33.6,99,29.59,7.0,East,11.5,17.3,N/A,,Overcast,90,2013-12-05 02:37:00
9:57 PM,34.7,34.2,98,29.58,7.0,East,9.2,19.6,N/A,Rain,Light Rain,100,2013-12-05 02:57:00
10:17 PM,35.6,35.1,98,29.56,3.0,East,6.9,20.7,N/A,Rain,Light Rain,100,2013-12-05 03:17:00
10:37 PM,36.1,35.4,97,29.54,4.0,East,11.5,18.4,N/A,Rain,Light Rain,100,2013-12-05 03:37:00
10:57 PM,37.0,36.5,98,29.53,2.5,ESE,12.7,17.3,N/A,Rain,Light Rain,120,2013-12-05 03:57:00
11:17 PM,39.2,38.7,98,29.51,4.0,SSE,13.8,23.0,N/A,Rain,Light Rain,150,2013-12-05 04:17:00
11:37 PM,40.8,40.1,97,29.49,3.0,SE,13.8,27.6,N/A,Rain,Light Rain,130,2013-12-05 04:37:00
11:57 PM,41.5,41.0,98,29.48,3.0,SE,13.8,26.5,N/A,Rain,Light Rain,130,2013-12-05 04:57:00